Regional Weather Roundup
Issued by NWS

Home | Current Version | Previous Version | Graphics & Text | Print | Product List | Glossary On
Versions: 1 2 3 4 5 6 7 8 9 10 11 12 13 14 15 16 17 18 19 20 21 22 23 24 25 26 27 28 29 30 31 32 33 34 35 36 37 38 39 40 41 42 43 44 45 46 47 48 49 50
000
ASUS43 KDMX 290808
RWRIA

WEATHER ROUNDUP FOR IOWA
NATIONAL WEATHER SERVICE DES MOINES IA
300 AM CDT SUN MAY 29 2016

NOTE: "FAIR" INDICATES FEW OR NO CLOUDS BELOW 12,000 FEET WITH NO
SIGNIFICANT WEATHER AND/OR OBSTRUCTIONS TO VISIBILITY.

* - THESE STATIONS ARE NOT NWS STATIONS...THUS NOT UNDER NWS
QUALITY CONTROL.  THEY ALSO DO NOT REPORT WEATHER SUCH
AS PRECIPITATION OR FOG.

IAZ001>003-012>014-020>022-031>034-043>046-290900-
   NORTHWEST IOWA

CITY           SKY/WX    TMP DP  RH WIND       PRES   REMARKS
CARROLL *      CLEAR     59  59 100 NW9       29.96R
CHEROKEE *     PTCLDY    59  59 100 W3        29.96S
DENISON *      CLEAR     57  57 100 CALM      29.96R
LE MARS *      CLEAR     59  57  94 SW5       29.97S
ORANGE CITY *  CLEAR     57  57 100 W3        29.96S
SHELDON *      CLEAR     59  59 100 W7        29.94S
SIOUX CITY     CLEAR     56  54  93 CALM      29.96F
SPENCER        CLEAR     59  57  93 W10       29.95R
STORM LAKE *   CLOUDY    59  59 100 W10       29.97R
$$

IAZ055>058-069>071-079>083-090>094-290900-
   SOUTHWEST IOWA

CITY           SKY/WX    TMP DP  RH WIND       PRES   REMARKS
ATLANTIC *     CLEAR     59  55  88 CALM      29.99R
AUDUBON *      CLEAR     57  54  88 SW3       29.99R
CLARINDA *       N/A     57  57 100 MISG      30.02R
COUNCIL BLFS * CLEAR     57  55  94 W6        30.00S
CRESTON *      CLEAR     59  55  88 W9        30.01R
HARLAN  *      CLEAR     57  55  94 CALM      30.01S
LAMONI         CLEAR     61  57  87 W9        29.99S
RED OAK *      PTCLDY    55  55 100 CALM      30.00S
SHENANDOAH *   CLEAR     59  59 100 CALM      30.01S
$$

IAZ047>049-059>061-072>074-084-290900-
   CENTRAL IOWA

CITY           SKY/WX    TMP DP  RH WIND       PRES   REMARKS
AMES           MOCLDY    63  60  90 W12       29.94R
ANKENY *       PTCLDY    63  61  94 W9G16     29.95R
BOONE *        CLOUDY    63  61  94 W12       29.94R
CHARITON *     CLEAR     61  57  88 SW7       29.97R
DES MOINES     PTCLDY    62  56  80 W9        29.96R
GRINNELL*      MOCLDY    61  57  88 W9        29.94S
KNOXVILLE *    CLEAR     61  57  88 W10       29.95R
MARSHALLTOWN   CLOUDY    62  60  93 W13       29.92R
NEWTON *       MOCLDY    61  61 100 W9        29.94R
PELLA *        MOCLDY    64  57  77 W13G20    29.96R
PERRY *          N/A     61  59  94 W9        29.96R
$$

IAZ004>006-015-016-023>025-035-036-290900-
   NORTH CENTRAL IOWA

CITY           SKY/WX    TMP DP  RH WIND       PRES   REMARKS
ALGONA *       PTCLDY    61  59  94 W10       29.94R
CLARION *      CLOUDY    63  63 100 W12       29.93R
ESTHERVILLE    CLEAR     58  57  97 W9        29.93R
FORT DODGE *   CLOUDY    63  57  82 W9        29.95R
MASON CITY     CLOUDY    61  61 100 W13       29.91R
FOREST CITY *  PTCLDY    59  59 100 W6        29.90R
WEBSTER CITY * MOCLDY    61  61 100 W12       29.92R
IOWA FALLS *   CLOUDY    63  61  94 W12       29.92R
$$

IAZ007>011-017>019-026>030-037>042-050>054-066-290900-
   NORTHEAST IOWA

CITY           SKY/WX    TMP DP  RH WIND       PRES   REMARKS
CEDAR RAPIDS   CLEAR     63  61  93 SW8       29.91S
CHARLES CITY * CLOUDY    63  63 100 W9        29.88S
CLINTON *      CLEAR     65  60  84 SW12      29.93F
DECORAH *      CLOUDY    63  61  94 CALM      29.85S
DUBUQUE        PTCLDY    62  59  90 SW9       29.90F
MONTICELLO *   PTCLDY    64  59  82 S8        29.90S
OELWEIN *      CLOUDY    63  61  94 SW13      29.89R
WATERLOO       MOCLDY    62  59  90 SW9       29.88R
$$

IAZ064-065-067-068-078-290900-
   EAST CENTRAL IOWA

CITY           SKY/WX    TMP DP  RH WIND       PRES   REMARKS
DAVENPORT      CLEAR     66  58  75 S9        29.94S
IOWA CITY      CLEAR     65  59  81 S7        29.94R
MT. PLEASANT * CLEAR     64  61  88 SW6       29.96R
MUSCATINE *    CLEAR     66  59  77 SW12      29.94S
QUAD CITIES    CLEAR     68  58  70 S9        29.93F
$$

IAZ062-063-075>077-085>089-095>099-290900-
   SOUTHEAST IOWA

CITY           SKY/WX    TMP DP  RH WIND       PRES   REMARKS
BURLINGTON     CLEAR     63  60  90 S7        29.96S
FAIRFIELD *      N/A    N/A N/A N/A MISG        N/A
FORT MADISON * CLEAR     64  59  82 S7        29.98R
KEOKUK *       CLEAR     64  59  82 S6        29.97S
OSKALOOSA *      N/A     63  57  82 W10       29.96R
OTTUMWA        CLEAR     64  59  83 SW9       29.95R
WASHINGTON *   CLEAR     64 N/A N/A SW10      29.96R
$$

ABBREVIATIONS USED IN REMARKS
   TC - TEMPERATURES IN CELSIUS
  WCI - WIND CHILL INDEX
   HX - HEAT INDEX
  VSB - VISIBILITY
$$





USA.gov is the U.S. government's official web portal to all federal, state and local government web resources and services.